MDT,Max TemperatureF,Mean TemperatureF,Min TemperatureF,Max Dew PointF,MeanDew PointF,Min DewpointF,Max Humidity, Mean Humidity, Min Humidity, Max Sea Level PressureIn, Mean Sea Level PressureIn, Min Sea Level PressureIn, Max VisibilityMiles, Mean VisibilityMiles, Min VisibilityMiles, Max Wind SpeedMPH, Mean Wind SpeedMPH, Max Gust SpeedMPH,PrecipitationIn, CloudCover, Events, WindDirDegrees
2012-10-1,75,53,31,41,35,31,96,60,23,30.32,30.13,29.86,10,10,9,21,6,24,0.00,0,,195
2012-10-2,73,56,38,42,36,24,86,52,17,30.04,29.86,29.75,10,10,5,25,11,33,0.28,4,Rain,281
2012-10-3,51,41,30,36,30,26,92,69,46,30.52,30.40,30.06,10,10,7,17,7,22,0.08,4,Rain,13
2012-10-4,52,38,24,26,24,21,85,58,30,30.46,30.42,30.37,10,10,10,12,5,16,0.00,0,,1
2012-10-5,53,36,19,28,21,15,92,58,24,30.51,30.46,30.42,10,10,10,13,2,18,0.00,0,,359
2012-10-6,54,37,20,29,24,19,96,63,29,30.47,30.40,30.31,10,10,10,9,2,13,T,2,,334
2012-10-7,59,40,21,33,27,19,100,66,31,30.32,30.18,30.04,10,10,10,21,3,56,0.00,0,,198
2012-10-8,54,42,29,37,33,28,92,71,50,30.07,30.01,29.96,10,10,10,29,8,40,T,7,,7
2012-10-9,60,46,31,35,33,30,92,65,37,30.16,30.10,30.05,10,10,10,15,4,20,T,2,,15
2012-10-10,63,44,24,38,31,23,100,68,36,30.09,30.01,29.89,10,9,2,31,8,41,0.00,2,,51
2012-10-11,60,45,29,36,31,27,96,68,39,30.12,30.03,29.93,10,10,9,25,6,32,0.00,1,,19
2012-10-12,65,44,23,39,28,21,100,66,32,29.93,29.85,29.74,10,4,0,13,3,18,0.00,2,Fog,196
2012-10-13,60,54,48,48,43,34,83,67,50,30.17,30.02,29.87,10,10,10,17,7,21,0.02,8,Rain,189
2012-10-14,65,58,50,47,44,39,83,65,46,30.18,30.04,29.90,10,10,10,17,9,23,0.00,7,,186
2012-10-15,63,57,51,50,47,42,89,70,51,29.88,29.83,29.69,10,10,10,22,8,25,0.14,7,Rain,174
2012-10-16,58,48,37,50,42,30,93,73,52,29.91,29.56,29.36,10,9,1,22,8,28,0.37,6,Rain-Thunderstorm,220
2012-10-17,53,39,25,30,25,19,85,57,28,30.31,30.14,29.97,10,10,10,28,7,23,0.00,3,,236
2012-10-18,55,39,23,31,27,22,92,62,32,30.35,30.24,29.98,10,10,10,12,2,16,0.00,2,,183
2012-10-19,55,44,33,48,40,30,93,80,66,29.95,29.78,29.58,10,10,8,18,4,24,0.15,7,Rain,202
2012-10-20,51,39,27,44,31,21,100,67,34,29.88,29.69,29.55,10,10,6,26,10,35,0.12,4,Rain,210
2012-10-21,45,35,24,32,29,24,100,79,57,29.97,29.93,29.88,10,10,9,15,2,20,0.01,6,Snow,356
2012-10-22,42,32,21,32,28,21,100,75,49,29.94,29.74,29.61,10,6,1,24,12,31,0.12,5,Snow,11
2012-10-23,37,33,28,30,27,23,100,82,64,30.01,29.85,29.65,10,7,1,18,6,25,0.14,7,Snow,22
2012-10-24,41,35,29,32,30,28,100,83,65,30.10,30.01,29.94,10,4,1,7,2,,0.04,7,Snow,30
2012-10-25,36,32,28,24,22,19,85,73,61,30.50,30.37,30.22,10,9,2,20,10,25,T,8,Snow,22
2012-10-26,41,34,27,32,28,25,96,80,64,30.47,30.29,30.07,10,9,1,8,1,18,0.06,7,Snow,147
2012-10-27,36,34,32,36,33,32,100,96,92,30.13,30.04,29.91,10,4,1,6,1,20,0.27,8,Rain-Snow,187
2012-10-28,47,41,34,44,38,34,100,93,86,29.99,29.92,29.84,10,5,0,12,2,26,0.27,8,Fog-Rain,233
2012-10-29,54,46,38,50,42,37,100,89,77,30.05,29.92,29.82,10,6,0,20,5,28,0.46,7,Fog-Rain,195
2012-10-30,57,49,41,48,44,40,100,81,62,30.07,30.00,29.93,10,9,5,21,4,24,0.12,7,Rain,226
2012-10-31,54,47,39,49,45,39,100,92,83,29.97,29.90,29.78,10,5,0,8,2,8,0.01,4,Fog-Rain,223